Wind_Speed
58 56 49 53 55 54 45 51 44 47 44 50 33 44 43 44 40 38 40 47 45 45 47 39 38 31 32 28 25 22 18 16 21 32 33 33 30 30 30 26 24 24 25 25
53 59 55 61 61 61 60 57 55 47 59 60 47 44 43 43 46 45 42 39 39 49 49 51 37 37 37 34 31 25 17 17 20 26 32 31 31 30 32 30 26 25 24 24
39 46 52 63 66 64 65 61 61 64 66 60 59 53 43 41 42 46 50 52 51 55 48 49 45 42 41 36 34 29 20 18 20 22 26 29 30 30 29 31 30 28 26 25
30 32 40 45 58 57 61 64 63 64 60 68 62 58 60 46 46 47 55 58 59 58 57 66 51 39 27 35 37 33 25 22 20 19 23 27 27 27 29 30 31 31 29 27
31 35 33 36 35 42 45 61 64 68 65 64 74 63 60 56 55 46 49 52 54 57 59 59 50 47 45 46 40 36 29 25 21 20 20 25 25 26 28 29 30 30 31 30
32 33 33 33 37 44 50 61 66 70 67 64 76 76 63 70 64 55 43 42 51 53 59 59 57 53 51 46 39 34 29 26 25 21 21 23 25 27 29 29 29 30 31 31
27 35 35 36 40 37 46 54 60 65 67 65 74 86 86 67 59 72 53 51 59 51 53 58 57 54 52 49 43 35 34 36 31 26 23 20 24 26 29 29 29 29 29 30
18 30 37 42 41 39 46 54 60 62 66 68 68 78 84 80 62 69 46 31 49 48 52 55 57 54 52 52 46 43 39 41 37 31 27 23 22 22 28 31 30 29 30 30
22 17 24 28 36 49 42 53 47 56 62 67 69 71 79 74 84 79 41 43 49 51 49 49 52 55 52 51 52 49 47 44 42 37 32 29 27 24 23 30 32 31 31 29
19 25 27 25 28 36 47 53 47 53 57 62 67 64 68 77 87 71 79 60 53 53 54 52 49 53 53 52 53 53 52 47 45 41 35 34 31 29 25 26 32 33 33 32
13 13 14 12 16 30 38 42 42 44 48 52 57 62 57 63 68 84 71 74 54 53 52 46 50 50 53 55 57 58 58 53 50 46 42 38 36 30 29 26 28 34 34 34
11 13 13 11 10 14 24 27 26 40 38 44 50 50 57 53 55 63 78 82 69 56 55 52 47 50 51 54 57 60 60 59 55 52 47 44 41 37 34 30 28 34 36 35
12 11 13 11 11 11 8 14 19 37 46 35 49 49 43 46 49 52 66 69 62 58 57 55 52 48 49 51 54 55 57 61 60 58 53 50 49 46 41 35 31 32 35 34
17 11 12 13 12 10 9 7 13 20 45 43 37 37 42 46 47 54 60 62 57 54 54 53 53 50 48 52 54 54 55 55 60 62 60 58 57 54 48 38 32 33 34 36
20 26 19 12 13 11 11 8 10 8 36 39 39 40 46 50 50 50 55 58 55 50 51 50 50 49 48 49 53 55 56 57 59 60 62 61 60 59 55 44 40 37 34 34
20 20 20 25 19 12 12 9 12 9 25 33 42 47 46 50 45 47 47 54 53 49 50 49 49 51 47 46 51 45 63 55 59 60 60 61 59 57 54 52 48 47 47 42
23 22 20 18 19 24 14 9 11 18 19 22 17 35 49 45 45 50 48 51 50 49 47 50 49 51 46 45 50 53 40 50 54 54 57 58 54 58 60 53 54 60 49 44
20 20 21 19 17 17 22 13 9 5 15 20 23 22 45 55 53 40 53 44 52 46 45 52 52 49 47 48 46 48 55 47 47 57 56 56 58 58 57 58 59 58 62 50
26 24 22 21 17 16 15 17 14 4 3 7 19 28 30 50 44 46 52 53 49 54 56 44 54 53 48 51 49 48 50 50 50 51 53 59 59 42 59 55 56 58 60 53
25 24 25 25 20 17 14 14 14 17 8 5 12 24 31 30 44 40 41 43 53 57 54 60 55 53 53 50 55 54 54 54 57 59 60 61 65 55 63 68 59 57 42 30
23 21 22 24 24 20 17 15 13 14 16 14 10 21 29 35 33 40 47 38 43 45 42 39 52 61 59 58 52 57 58 57 61 61 65 69 66 68 69 45 34 35 32 40
28 24 21 21 25 25 19 17 18 15 16 15 17 12 29 38 43 39 37 41 33 50 29 42 52 54 60 62 59 55 57 55 59 55 51 49 50 57 58 55 50 47 45 45
30 28 22 20 20 24 25 20 16 21 19 17 17 19 14 25 39 44 43 43 38 38 46 41 37 47 58 55 56 58 61 62 59 55 53 50 51 52 55 53 47 54 54 52
24 25 24 21 19 21 23 23 22 16 22 22 19 20 18 19 19 31 47 51 44 41 36 40 45 41 40 42 57 56 54 54 58 61 65 65 63 52 53 53 56 61 57 56
21 25 27 27 23 22 22 24 24 20 18 22 23 24 23 23 21 25 26 27 34 38 35 40 44 49 48 46 50 46 47 49 50 52 54 56 59 59 55 58 59 55 56 59
24 18 18 25 24 23 22 24 26 22 21 20 17 21 25 24 25 24 28 27 28 31 33 35 41 46 46 45 47 50 52 55 55 54 56 57 56 53 50 51 55 56 56 59
22 17 23 26 24 24 20 22 26 24 22 22 19 18 21 26 27 26 26 26 29 33 32 31 33 37 41 45 48 51 54 55 56 57 58 58 57 57 57 57 58 60 62 65
Wind_Direction
232 227 221 222 229 233 219 221 219 220 208 185 214 227 215 213 219 230 225 227 231 235 242 258 247 246 254 248 242 245 261 250 238 230 227 229 229 227 231 232 232 236 237 236
238 232 224 230 229 232 235 230 216 219 208 188 213 227 214 209 218 215 233 211 210 218 225 240 220 236 233 247 249 247 248 253 241 232 231 231 230 230 230 233 233 235 240 239
245 235 233 223 228 232 236 236 233 226 208 198 205 216 208 199 181 201 194 208 204 215 218 226 230 205 228 231 242 243 243 250 250 240 232 235 235 232 231 234 233 235 238 240
234 232 230 236 227 232 233 236 231 233 228 212 214 212 216 212 198 203 207 209 213 223 228 226 227 214 210 231 238 240 241 241 251 251 244 240 239 239 236 235 235 238 239 239
241 234 232 222 216 211 220 225 226 227 224 210 217 217 218 213 204 200 214 227 215 227 231 237 243 239 249 247 233 237 240 243 242 247 250 246 244 240 238 238 239 240 243 243
241 243 239 220 224 213 217 226 227 226 226 216 213 219 221 212 218 210 216 227 225 222 227 231 233 235 236 237 236 235 240 243 247 245 249 244 238 239 237 236 236 238 240 242
244 245 240 239 228 222 224 227 230 227 225 220 214 216 220 217 207 212 221 234 211 214 219 225 228 230 233 235 234 229 238 237 242 240 240 240 236 235 238 238 237 236 238 240
252 247 251 250 242 234 228 231 228 227 224 223 219 220 216 219 216 202 222 218 206 213 216 220 223 224 227 233 235 232 233 235 242 241 242 245 242 246 237 238 239 237 236 240
244 246 251 248 238 235 235 229 232 229 226 223 221 219 221 214 216 220 222 225 218 215 220 221 223 225 224 229 230 230 232 233 236 238 241 243 244 246 253 241 237 238 240 239
240 229 249 248 242 237 239 238 243 233 224 222 223 222 218 220 223 221 223 226 222 223 224 224 223 226 225 226 231 232 234 235 235 237 241 241 249 240 252 256 243 237 238 239
267 249 236 233 246 243 235 229 230 226 221 221 221 221 220 220 227 221 216 215 216 228 228 227 225 226 225 225 226 229 236 239 239 236 238 242 247 246 250 258 254 243 239 237
310 296 303 296 255 238 228 234 223 209 209 218 213 214 222 224 228 229 220 223 226 223 227 228 229 227 226 227 227 227 231 234 238 240 240 244 247 244 248 252 255 242 240 239
347 328 318 310 295 277 254 233 218 216 204 206 204 211 216 224 234 222 219 220 220 220 224 227 227 228 227 227 231 231 230 231 232 236 240 243 247 249 251 247 250 250 241 241
14 350 356 355 334 298 269 254 225 210 213 205 202 204 219 226 230 210 212 216 216 217 220 222 224 224 225 226 230 232 233 232 231 233 236 239 241 246 246 243 245 253 245 241
24 19 19 22 18 0 265 255 235 179 211 203 204 209 211 224 218 209 209 212 212 212 216 219 219 222 226 228 231 232 232 229 227 227 231 232 233 237 241 239 239 247 244 237
9 18 20 5 13 25 13 221 210 201 201 216 222 208 213 211 206 204 211 213 211 215 218 217 217 223 224 225 227 238 226 224 222 225 228 231 232 230 232 233 235 239 240 234
354 354 358 4 2 357 35 32 221 205 211 221 213 217 211 210 209 207 208 219 211 212 216 217 219 222 221 225 227 232 222 212 223 221 225 229 228 230 233 226 233 239 235 237
340 339 335 340 351 353 348 18 49 208 213 217 233 244 221 215 209 209 211 221 209 211 216 219 217 220 223 222 220 221 223 224 225 227 227 229 231 230 232 233 240 238 240 235
334 330 327 326 331 336 339 339 352 11 39 231 231 245 215 215 213 204 210 212 214 208 220 215 219 215 221 221 221 219 221 223 224 228 226 229 224 228 233 236 246 249 251 263
322 319 317 319 320 317 317 320 325 322 292 196 221 237 242 241 213 216 210 215 219 228 228 227 227 220 224 223 224 224 226 230 229 228 229 228 230 231 232 238 250 237 248 256
309 308 303 304 311 312 300 294 293 295 303 300 246 230 239 243 231 225 231 219 215 211 221 207 216 224 225 230 225 227 227 231 236 237 235 237 239 236 236 248 247 240 234 245
303 298 302 295 293 297 303 289 273 266 267 278 286 237 223 236 234 224 240 242 230 223 234 219 220 223 231 235 236 231 231 231 233 232 228 228 232 235 242 236 243 239 239 242
300 300 300 296 287 283 289 288 283 267 260 256 265 272 250 222 230 237 243 244 246 239 239 241 213 219 228 233 242 245 246 246 252 249 246 237 233 228 222 231 245 247 246 247
294 294 296 296 292 284 283 286 278 272 258 251 244 251 254 255 242 224 228 239 244 240 243 250 249 244 234 228 234 239 235 242 250 254 258 263 258 237 222 243 245 239 243 251
295 292 295 294 295 287 276 276 277 268 267 257 240 237 239 241 238 247 233 229 234 237 232 230 236 239 242 249 251 241 243 246 249 249 252 254 258 260 263 266 263 259 262 266
297 298 270 288 289 285 278 272 265 267 267 263 261 242 240 241 242 239 246 246 241 240 243 235 224 225 229 229 232 236 241 247 248 248 250 252 252 253 254 258 256 257 257 259
309 287 282 285 285 280 274 267 266 258 259 260 259 254 244 238 242 242 240 244 245 245 245 243 242 238 234 234 235 236 237 238 239 241 243 247 250 253 254 254 254 252 252 253
Height
5718 5725 5725 5732 5738 5744 5752 5763 5770 5785 5793 5805 5806 5800 5810 5812 5823 5832 5837 5842 5846 5852 5853 5857 5868 5876 5880 5883 5888 5893 5896 5899 5903 5907 5912 5917 5922 5927 5931 5935 5939 5941 5945 5948
5698 5705 5712 5719 5725 5731 5739 5750 5755 5764 5770 5786 5784 5783 5802 5803 5810 5816 5830 5831 5835 5842 5848 5849 5849 5862 5872 5878 5883 5888 5892 5895 5896 5900 5905 5911 5916 5921 5925 5929 5933 5936 5941 5944
5685 5689 5695 5698 5709 5719 5728 5737 5743 5749 5762 5774 5772 5777 5788 5796 5794 5802 5809 5817 5823 5830 5837 5842 5841 5839 5861 5872 5877 5882 5888 5890 5893 5896 5900 5906 5910 5914 5919 5924 5927 5931 5935 5939
5673 5676 5677 5696 5700 5707 5714 5723 5728 5735 5750 5763 5761 5766 5773 5782 5782 5788 5791 5800 5813 5822 5827 5826 5835 5826 5852 5865 5870 5878 5883 5886 5889 5892 5896 5899 5904 5909 5913 5917 5921 5925 5928 5932
5663 5666 5672 5677 5688 5684 5689 5702 5714 5712 5724 5740 5747 5751 5761 5758 5765 5772 5780 5790 5800 5813 5821 5827 5835 5842 5849 5857 5866 5870 5877 5882 5886 5888 5890 5893 5898 5903 5906 5909 5914 5918 5922 5926
5656 5658 5662 5674 5666 5673 5680 5687 5687 5701 5714 5728 5737 5735 5735 5741 5754 5766 5772 5783 5794 5800 5811 5819 5828 5835 5840 5848 5858 5865 5872 5877 5880 5882 5885 5887 5891 5895 5898 5902 5906 5910 5914 5918
5649 5650 5654 5651 5658 5666 5669 5677 5678 5689 5698 5709 5716 5715 5718 5724 5748 5757 5767 5766 5777 5787 5798 5807 5815 5823 5830 5837 5846 5859 5864 5867 5872 5876 5880 5882 5884 5888 5892 5896 5899 5902 5907 5911
5645 5645 5646 5643 5653 5654 5655 5659 5664 5671 5682 5693 5703 5709 5726 5731 5744 5752 5756 5761 5770 5779 5787 5792 5800 5810 5819 5827 5839 5848 5853 5859 5864 5869 5873 5876 5879 5882 5885 5888 5892 5896 5899 5904
5638 5640 5636 5637 5639 5642 5646 5651 5653 5660 5668 5679 5691 5700 5711 5732 5739 5742 5746 5755 5764 5772 5779 5787 5796 5802 5811 5820 5826 5835 5842 5850 5856 5862 5866 5870 5873 5876 5878 5881 5885 5888 5892 5895
5632 5632 5631 5630 5631 5632 5635 5640 5644 5648 5656 5666 5677 5688 5702 5713 5717 5727 5737 5748 5756 5764 5771 5779 5786 5792 5803 5810 5819 5826 5831 5840 5847 5853 5858 5862 5866 5869 5872 5874 5877 5880 5883 5887
5628 5626 5625 5623 5623 5623 5625 5628 5631 5637 5645 5653 5665 5677 5688 5698 5704 5713 5724 5736 5746 5755 5761 5769 5777 5783 5791 5799 5807 5815 5822 5830 5837 5843 5848 5854 5858 5862 5865 5868 5870 5872 5876 5877
5624 5621 5620 5619 5619 5619 5618 5620 5623 5627 5636 5644 5656 5666 5678 5686 5692 5701 5715 5723 5738 5746 5752 5759 5766 5772 5781 5788 5794 5803 5811 5818 5827 5833 5839 5844 5848 5853 5857 5860 5863 5864 5867 5869
5622 5619 5617 5616 5615 5614 5613 5614 5616 5621 5629 5636 5646 5657 5667 5676 5682 5690 5701 5713 5726 5736 5745 5750 5756 5762 5770 5776 5782 5790 5798 5805 5814 5821 5827 5833 5837 5842 5848 5852 5855 5857 5859 5861
5623 5619 5616 5613 5611 5610 5610 5610 5611 5614 5620 5630 5640 5648 5657 5665 5671 5679 5689 5701 5714 5725 5732 5739 5745 5751 5759 5765 5772 5779 5786 5792 5799 5807 5813 5820 5825 5829 5837 5843 5847 5849 5851 5853
5624 5619 5616 5613 5609 5607 5606 5607 5609 5610 5619 5625 5632 5639 5647 5654 5664 5671 5679 5691 5704 5714 5721 5727 5735 5741 5749 5755 5761 5766 5771 5778 5784 5792 5797 5803 5811 5819 5826 5832 5835 5837 5841 5844
5624 5620 5617 5613 5609 5606 5603 5604 5607 5610 5616 5623 5626 5631 5639 5647 5657 5664 5673 5683 5695 5703 5710 5718 5725 5731 5739 5745 5750 5745 5754 5763 5770 5775 5783 5791 5800 5804 5811 5815 5820 5823 5823 5829
5624 5621 5619 5615 5611 5606 5603 5602 5603 5608 5611 5616 5620 5625 5633 5640 5647 5654 5666 5675 5685 5693 5699 5708 5715 5722 5730 5736 5737 5742 5729 5743 5757 5764 5772 5780 5782 5791 5793 5790 5804 5807 5813 5818
5625 5620 5616 5614 5611 5607 5604 5602 5601 5602 5605 5610 5614 5619 5625 5631 5639 5641 5654 5658 5675 5684 5690 5696 5704 5712 5718 5725 5731 5734 5738 5742 5747 5751 5760 5769 5777 5779 5780 5782 5779 5790 5799 5806
5623 5618 5615 5612 5610 5607 5604 5602 5597 5598 5600 5602 5607 5613 5616 5624 5623 5636 5645 5654 5661 5666 5676 5679 5691 5701 5707 5713 5718 5722 5726 5735 5741 5744 5751 5757 5763 5745 5771 5775 5777 5780 5789 5792
5620 5616 5610 5606 5607 5606 5604 5601 5599 5596 5596 5597 5599 5605 5611 5612 5620 5626 5637 5644 5652 5660 5667 5674 5681 5689 5696 5703 5708 5712 5719 5724 5729 5734 5741 5746 5753 5757 5762 5763 5760 5765 5775 5777
5617 5614 5611 5606 5601 5602 5601 5600 5598 5597 5594 5594 5595 5599 5603 5605 5608 5616 5621 5630 5641 5648 5654 5656 5668 5676 5683 5690 5697 5704 5710 5713 5717 5724 5729 5732 5740 5747 5747 5745 5748 5753 5755 5761
5610 5610 5608 5605 5601 5597 5598 5598 5596 5595 5596 5593 5594 5596 5599 5602 5606 5612 5617 5622 5626 5634 5639 5648 5656 5663 5671 5678 5685 5692 5697 5700 5704 5711 5714 5718 5724 5730 5733 5737 5743 5744 5749 5754
5604 5602 5602 5600 5598 5595 5590 5593 5593 5592 5590 5590 5592 5592 5594 5598 5602 5605 5610 5613 5619 5624 5632 5636 5642 5651 5658 5665 5670 5676 5683 5688 5690 5695 5700 5705 5709 5714 5719 5724 5728 5733 5736 5740
5599 5596 5595 5595 5594 5591 5588 5586 5585 5588 5588 5586 5589 5588 5592 5593 5594 5598 5604 5606 5609 5615 5619 5624 5632 5638 5644 5651 5658 5663 5669 5674 5680 5684 5689 5691 5693 5700 5704 5709 5715 5717 5721 5723
5595 5591 5588 5586 5586 5585 5584 5582 5580 5580 5581 5581 5585 5587 5586 5589 5592 5593 5597 5599 5602 5606 5613 5618 5622 5629 5636 5641 5648 5650 5655 5661 5665 5670 5674 5678 5682 5685 5688 5693 5696 5699 5702 5706
5587 5585 5583 5580 5579 5578 5578 5576 5575 5576 5575 5575 5576 5579 5580 5582 5583 5587 5588 5589 5593 5597 5601 5607 5612 5617 5622 5627 5633 5638 5642 5648 5652 5656 5660 5663 5665 5669 5673 5677 5680 5683 5685 5688
5579 5576 5576 5573 5572 5570 5571 5569 5568 5569 5570 5571 5573 5573 5574 5575 5576 5578 5581 5583 5586 5589 5592 5595 5600 5606 5611 5615 5620 5624 5629 5633 5637 5641 5643 5647 5650 5653 5656 5659 5661 5664 5668 5670